Temp
72 76 81 82 82 83 83 83 83 82 82 82 82 82 82 82 82 82 82 82 83 83 83 83 83 83 84 84 84 84 83 83 83 84 84 84 83 83 83 82 82 82 82
75 77 81 82 83 83 83 83 82 82 82 82 83 83 83 82 82 82 83 83 83 83 83 83 84 84 83 84 84 84 84 83 84 84 84 84 84 83 83 83 82 82 82
76 78 81 82 83 83 82 82 82 82 83 83 83 83 83 83 83 83 83 83 83 83 84 84 84 84 83 84 84 84 83 83 84 84 83 79 81 84 83 83 83 82 82
78 77 79 81 82 83 82 82 83 83 83 83 83 83 83 83 83 83 84 84 83 83 84 83 83 84 83 83 83 84 84 83 84 83 79 79 83 83 83 82 82 82 82
78 78 80 82 82 83 83 83 83 83 83 83 83 83 83 83 84 83 83 84 83 83 84 84 84 84 84 84 84 84 84 84 84 81 76 75 77 82 82 83 82 82 81
78 79 82 82 83 83 83 83 83 83 83 83 83 83 84 83 84 83 84 84 84 84 84 84 83 83 84 83 84 84 84 84 81 77 77 78 77 83 83 83 82 82 82
77 79 81 83 83 83 83 83 83 83 83 83 83 84 83 84 84 84 83 84 84 84 84 84 84 84 84 83 83 84 84 83 77 75 76 75 78 82 82 82 82 82 82
77 78 80 83 83 83 83 83 83 83 83 83 83 84 84 83 84 84 84 84 84 84 84 84 84 84 83 83 83 83 84 83 80 76 76 76 80 82 82 82 82 81 81
79 77 78 79 82 84 83 83 83 83 83 83 84 84 84 84 84 84 84 84 84 84 84 84 83 83 83 84 84 84 83 82 75 77 79 76 80 82 82 82 82 81 81
77 77 75 75 76 77 80 84 83 83 83 83 84 83 83 83 84 84 83 84 85 85 84 84 83 83 82 83 83 84 84 82 76 76 76 77 81 82 82 82 82 81 81
77 75 74 75 74 75 77 82 83 84 84 84 83 84 81 76 78 80 82 84 85 84 84 84 83 83 84 84 84 84 82 76 77 75 75 79 81 83 82 82 81 81 81
73 74 75 75 74 76 82 77 76 79 76 76 76 76 74 74 75 79 82 85 85 84 83 82 83 82 79 75 75 81 76 77 76 75 75 80 82 83 82 82 81 81 81
76 77 76 76 76 76 77 74 74 75 75 75 75 75 74 76 74 74 73 75 75 79 76 77 75 73 76 75 75 74 75 78 74 75 78 80 82 82 82 81 81 81 81
76 78 78 78 77 74 75 75 75 75 74 74 75 74 72 71 72 72 72 72 72 73 74 73 73 73 74 75 76 75 78 77 74 74 76 80 81 82 82 82 81 81 81
77 79 78 78 77 75 75 73 73 74 74 75 73 74 72 71 71 73 71 72 72 73 73 72 73 73 73 77 79 79 79 76 74 74 73 81 81 81 82 82 81 81 81
80 79 79 78 77 76 75 74 74 76 76 74 74 74 74 73 73 71 72 72 71 72 72 72 72 73 73 77 76 78 77 75 75 73 73 75 80 81 81 82 81 81 81
80 80 78 78 77 78 76 77 76 76 79 76 75 75 76 75 74 72 71 72 72 72 73 71 73 74 74 76 75 75 74 76 75 74 74 73 77 81 81 81 81 81 81
82 79 80 85 79 77 77 77 77 76 76 77 75 75 77 76 74 73 72 72 73 71 73 71 72 73 73 73 77 75 74 75 75 75 74 74 74 77 80 81 80 80 81
81 79 78 79 77 77 76 76 76 76 76 76 76 75 77 76 75 73 72 72 73 73 76 74 75 74 72 73 76 73 74 74 74 78 75 75 73 74 74 78 80 80 81
81 80 78 79 76 76 75 75 75 75 74 76 76 76 76 74 76 73 72 73 74 71 72 76 74 72 73 73 79 76 73 73 74 73 75 78 74 75 74 74 74 75 80
81 79 77 75 74 74 73 72 72 73 73 74 75 78 77 76 76 74 73 74 73 72 72 76 73 72 72 73 71 71 71 73 72 73 74 75 75 76 75 74 73 73 74
80 79 76 77 74 75 74 73 74 74 74 77 75 77 77 77 74 75 74 74 73 73 72 73 72 70 70 71 69 67 66 70 71 74 73 75 74 75 77 76 75 74 73
79 77 77 77 75 75 75 73 73 74 73 73 73 75 76 78 76 76 75 74 73 72 72 73 73 72 70 70 71 70 63 64 66 70 71 72 74 72 76 76 77 76 73
79 79 78 77 76 76 75 72 73 72 71 73 74 75 76 78 77 77 75 75 73 72 72 73 75 71 70 70 71 74 70 70 66 67 70 72 73 75 73 73 75 76 75
81 79 77 77 76 77 77 75 74 72 73 73 75 75 74 75 77 78 77 75 74 73 73 73 73 73 71 71 70 70 69 68 69 67 66 70 72 73 73 74 74 74 75
81 80 77 76 76 75 76 73 73 72 72 72 76 75 74 75 75 77 77 75 74 73 73 73 74 73 73 71 71 70 70 70 70 68 66 67 69 73 73 74 74 74 75
MSLP
1016.47 1016.45 1016.47 1016.48 1016.51 1016.50 1016.49 1016.60 1016.87 1017.10 1017.22 1017.33 1017.41 1017.44 1017.44 1017.55 1017.65 1017.75 1017.88 1017.85 1017.78 1017.78 1017.90 1017.98 1017.94 1017.84 1017.64 1017.67 1017.71 1017.65 1017.73 1017.82 1017.89 1018.08 1018.25 1018.42 1018.51 1018.58 1018.60 1018.68 1018.75 1018.82 1018.88
1015.81 1016.24 1016.35 1016.45 1016.53 1016.59 1016.66 1016.71 1016.89 1017.17 1017.38 1017.45 1017.48 1017.52 1017.60 1017.69 1017.78 1017.82 1017.90 1017.99 1017.97 1017.97 1018.01 1018.19 1018.14 1018.07 1017.96 1018.00 1018.08 1018.13 1018.21 1018.21 1018.20 1018.27 1018.43 1018.61 1018.73 1018.90 1018.93 1019.01 1019.05 1019.08 1019.10
1015.91 1016.22 1016.32 1016.40 1016.54 1016.69 1016.84 1016.95 1017.07 1017.25 1017.35 1017.48 1017.61 1017.70 1017.75 1017.83 1017.90 1017.96 1018.03 1018.10 1018.15 1018.23 1018.11 1018.13 1018.20 1018.30 1018.39 1018.30 1018.32 1018.47 1018.48 1018.60 1018.63 1018.66 1018.90 1019.12 1019.21 1019.18 1019.27 1019.23 1019.27 1019.27 1019.39
1015.71 1016.17 1016.31 1016.43 1016.56 1016.77 1016.93 1017.13 1017.27 1017.31 1017.44 1017.55 1017.73 1017.85 1017.95 1018.13 1018.28 1018.20 1018.23 1018.31 1018.39 1018.38 1018.37 1018.51 1018.56 1018.59 1018.65 1018.67 1018.71 1018.68 1018.78 1018.89 1018.95 1019.00 1019.23 1019.39 1019.47 1019.45 1019.59 1019.53 1019.57 1019.61 1019.74
1015.77 1016.15 1016.39 1016.56 1016.72 1016.87 1017.13 1017.35 1017.41 1017.46 1017.59 1017.70 1017.82 1017.91 1018.10 1018.33 1018.39 1018.57 1018.48 1018.51 1018.60 1018.63 1018.64 1018.69 1018.76 1018.93 1019.00 1019.00 1018.99 1018.99 1019.04 1018.96 1019.19 1019.36 1019.62 1019.77 1019.82 1019.84 1019.85 1019.88 1020.00 1020.11 1020.20
1015.81 1016.18 1016.40 1016.62 1016.82 1016.95 1017.19 1017.40 1017.47 1017.61 1017.75 1017.90 1018.00 1018.13 1018.27 1018.47 1018.51 1018.65 1018.63 1018.75 1018.80 1018.79 1018.78 1018.87 1019.09 1019.21 1019.29 1019.40 1019.35 1019.25 1019.23 1019.31 1019.55 1019.79 1019.89 1019.97 1020.04 1019.99 1020.14 1020.23 1020.42 1020.48 1020.54
1016.04 1016.27 1016.49 1016.66 1016.89 1017.06 1017.25 1017.47 1017.58 1017.65 1017.84 1017.99 1018.16 1018.27 1018.37 1018.51 1018.57 1018.72 1018.89 1019.02 1019.00 1019.03 1019.13 1019.26 1019.28 1019.34 1019.42 1019.55 1019.62 1019.54 1019.63 1019.72 1019.88 1020.12 1020.22 1020.41 1020.47 1020.47 1020.59 1020.71 1020.75 1020.79 1020.83
1016.05 1016.43 1016.57 1016.81 1017.02 1017.19 1017.34 1017.63 1017.65 1017.81 1018.05 1018.25 1018.39 1018.42 1018.49 1018.65 1018.70 1018.81 1018.99 1019.06 1019.09 1019.16 1019.24 1019.38 1019.53 1019.60 1019.69 1019.86 1019.80 1019.75 1019.79 1020.07 1020.33 1020.43 1020.59 1020.80 1020.79 1020.69 1020.81 1020.91 1021.01 1021.11 1021.13
1016.00 1016.52 1016.78 1016.94 1017.19 1017.34 1017.57 1017.67 1017.85 1018.02 1018.22 1018.34 1018.47 1018.57 1018.74 1018.79 1018.83 1018.93 1019.11 1019.21 1019.23 1019.29 1019.37 1019.52 1019.68 1019.85 1019.97 1020.09 1020.06 1020.04 1020.28 1020.49 1020.69 1020.77 1020.85 1021.05 1021.05 1021.03 1021.09 1021.14 1021.20 1021.35 1021.36
1016.18 1016.61 1017.00 1017.14 1017.38 1017.63 1017.73 1017.79 1017.99 1018.14 1018.25 1018.41 1018.52 1018.81 1018.96 1019.00 1018.96 1019.12 1019.31 1019.42 1019.43 1019.50 1019.59 1019.67 1019.83 1020.01 1020.09 1020.23 1020.21 1020.17 1020.45 1020.74 1021.02 1021.17 1021.27 1021.27 1021.19 1021.13 1021.17 1021.23 1021.42 1021.54 1021.54
1016.71 1016.89 1017.04 1017.30 1017.60 1017.80 1017.92 1017.97 1018.06 1018.26 1018.36 1018.46 1018.70 1018.89 1019.04 1019.16 1019.15 1019.26 1019.45 1019.51 1019.50 1019.63 1019.75 1019.81 1019.94 1020.11 1020.28 1020.29 1020.29 1020.47 1020.85 1021.24 1021.39 1021.48 1021.45 1021.33 1021.28 1021.26 1021.42 1021.57 1021.71 1021.81 1021.85
1016.73 1017.12 1017.20 1017.33 1017.62 1017.85 1017.86 1018.14 1018.25 1018.38 1018.63 1018.81 1019.03 1019.18 1019.39 1019.47 1019.45 1019.49 1019.55 1019.57 1019.60 1019.58 1019.85 1019.94 1020.19 1020.39 1020.61 1020.62 1020.63 1020.65 1021.12 1021.41 1021.52 1021.71 1021.65 1021.49 1021.42 1021.55 1021.69 1021.89 1022.05 1022.11 1022.06
1016.17 1016.81 1017.16 1017.24 1017.51 1017.72 1017.90 1018.37 1018.36 1018.40 1018.61 1018.81 1019.07 1019.21 1019.43 1019.55 1019.63 1019.73 1020.06 1019.96 1019.94 1019.86 1019.95 1020.18 1020.33 1020.61 1020.59 1020.67 1020.54 1020.85 1021.19 1021.46 1021.67 1021.83 1021.84 1021.69 1021.61 1021.71 1021.96 1022.13 1022.27 1022.23 1022.22
1016.07 1016.35 1016.85 1016.96 1017.39 1017.73 1018.04 1018.33 1018.33 1018.55 1018.67 1018.85 1019.01 1019.15 1019.60 1019.87 1019.85 1020.23 1020.21 1020.09 1020.27 1020.03 1020.18 1020.42 1020.43 1020.36 1020.73 1020.60 1020.51 1020.86 1021.17 1021.47 1021.79 1021.95 1021.93 1021.89 1021.86 1021.91 1022.05 1022.23 1022.40 1022.45 1022.45
1015.81 1016.19 1016.65 1016.81 1017.25 1017.67 1017.99 1018.36 1018.67 1018.77 1018.82 1018.85 1018.92 1019.04 1019.46 1019.99 1020.05 1020.03 1020.20 1020.21 1020.38 1020.30 1020.32 1020.45 1020.41 1020.38 1020.63 1020.18 1020.32 1020.58 1021.14 1021.48 1021.77 1021.99 1022.11 1021.98 1021.97 1022.06 1022.18 1022.31 1022.44 1022.45 1022.53
1015.53 1015.99 1016.51 1016.85 1017.09 1017.47 1017.81 1018.11 1018.44 1018.50 1018.68 1018.94 1018.92 1018.90 1019.23 1019.68 1019.72 1020.05 1020.29 1020.25 1020.44 1020.34 1020.39 1020.56 1020.69 1021.03 1021.00 1020.56 1020.64 1020.77 1021.12 1021.53 1021.71 1021.97 1022.05 1021.98 1021.96 1022.04 1022.15 1022.23 1022.37 1022.43 1022.46
1015.23 1015.69 1016.36 1016.77 1017.04 1017.20 1017.69 1017.83 1017.97 1018.15 1018.47 1018.85 1018.90 1018.83 1018.97 1019.11 1019.43 1019.75 1020.13 1020.30 1020.41 1020.29 1020.45 1020.56 1020.52 1020.61 1020.94 1021.02 1020.84 1021.09 1021.30 1021.53 1021.80 1022.00 1022.01 1022.01 1021.99 1022.03 1022.11 1022.14 1022.26 1022.38 1022.42
1015.01 1015.66 1016.26 1016.65 1016.87 1017.11 1017.45 1017.54 1017.61 1018.03 1018.25 1018.58 1018.67 1018.72 1018.93 1019.14 1019.31 1019.65 1020.03 1020.21 1020.36 1020.50 1020.50 1020.65 1020.65 1020.74 1020.89 1021.41 1021.38 1021.13 1021.46 1021.65 1021.87 1021.92 1022.17 1022.24 1022.19 1022.06 1022.02 1022.05 1022.16 1022.28 1022.33
1014.81 1015.59 1016.08 1016.43 1016.66 1016.97 1017.08 1017.18 1017.65 1017.98 1018.30 1018.31 1018.50 1018.65 1018.86 1019.20 1019.40 1019.61 1019.84 1019.95 1020.21 1020.61 1020.59 1020.50 1020.53 1020.72 1021.09 1021.20 1021.47 1021.54 1021.67 1021.84 1021.84 1021.79 1021.98 1022.06 1022.01 1022.10 1022.13 1022.10 1022.14 1022.23 1022.25
1014.54 1015.18 1015.83 1016.43 1016.62 1016.91 1017.29 1017.51 1017.92 1018.20 1018.47 1018.36 1018.55 1018.67 1018.88 1019.17 1019.25 1019.53 1019.81 1019.95 1020.06 1020.57 1020.49 1020.53 1020.72 1020.89 1021.05 1021.25 1021.53 1021.67 1021.78 1021.79 1021.83 1021.78 1021.78 1021.85 1022.00 1022.05 1021.97 1021.98 1022.04 1022.02 1022.04
1014.33 1015.15 1015.75 1016.33 1016.60 1016.99 1017.48 1017.98 1018.37 1018.51 1018.56 1018.66 1018.55 1018.47 1018.73 1018.97 1019.19 1019.59 1019.87 1019.87 1019.97 1020.51 1020.54 1020.59 1020.90 1021.13 1021.32 1021.57 1021.89 1022.11 1021.91 1021.96 1022.11 1022.00 1021.73 1021.73 1021.87 1021.79 1021.78 1021.79 1021.85 1021.93 1021.96
1014.01 1014.83 1015.63 1016.02 1016.41 1016.89 1017.21 1017.58 1017.79 1018.21 1018.43 1018.30 1018.44 1018.52 1018.70 1018.94 1019.31 1019.51 1019.65 1019.89 1020.06 1020.38 1020.69 1020.68 1020.93 1021.49 1021.54 1021.39 1022.08 1022.48 1022.67 1022.27 1021.95 1021.65 1021.55 1021.63 1021.51 1021.66 1021.59 1021.58 1021.57 1021.66 1021.75
1013.98 1014.59 1015.24 1015.75 1016.09 1016.64 1017.03 1017.48 1017.87 1018.24 1018.59 1018.87 1018.93 1018.82 1018.75 1018.86 1019.29 1019.35 1019.59 1019.80 1020.16 1020.25 1020.47 1020.64 1020.85 1021.10 1021.57 1021.55 1021.59 1021.95 1022.77 1022.62 1022.20 1021.70 1021.44 1021.40 1021.43 1021.53 1021.22 1021.29 1021.31 1021.41 1021.42
1013.44 1014.18 1014.77 1015.39 1015.93 1016.36 1016.85 1017.32 1017.85 1018.23 1018.63 1018.69 1018.56 1018.53 1018.69 1018.67 1019.09 1019.15 1019.37 1019.64 1019.84 1020.17 1020.47 1020.49 1020.62 1021.02 1021.31 1021.70 1021.68 1021.58 1021.64 1021.92 1022.36 1022.43 1021.68 1021.33 1021.33 1021.25 1021.10 1021.08 1020.99 1021.04 1021.03
1013.17 1013.79 1014.38 1015.02 1015.60 1016.17 1016.82 1017.11 1017.65 1018.16 1018.16 1018.21 1018.38 1018.44 1018.62 1018.66 1018.74 1018.83 1019.17 1019.56 1019.77 1020.00 1020.14 1020.51 1020.69 1020.91 1021.16 1021.56 1021.71 1021.68 1021.71 1021.90 1021.97 1022.29 1022.15 1021.61 1021.27 1020.92 1020.73 1020.77 1020.69 1020.73 1020.70
1012.48 1013.29 1013.95 1014.62 1015.25 1015.85 1016.66 1017.04 1017.43 1017.97 1018.21 1018.35 1018.41 1018.69 1018.71 1018.75 1018.78 1018.81 1018.94 1019.16 1019.43 1019.69 1020.03 1020.17 1020.21 1020.61 1020.90 1021.20 1021.33 1021.59 1021.91 1021.94 1021.96 1022.01 1022.16 1021.76 1021.54 1020.92 1020.65 1020.52 1020.51 1020.37 1020.23
Wind_Speed
7 7 10 8 9 10 10 11 14 15 15 14 14 13 14 13 12 12 11 11 11 10 12 12 12 12 13 16 15 16 16 17 16 17 17 15 16 17 17 16 16 12 17
11 9 11 9 10 12 11 12 14 15 15 14 13 12 13 13 12 11 11 11 11 10 11 12 12 12 12 14 14 15 14 15 16 18 18 17 17 16 17 16 16 12 17
13 9 9 11 12 14 13 14 14 14 14 14 12 13 12 12 11 11 12 11 12 12 11 12 12 12 11 12 12 13 13 14 16 18 16 5 8 16 16 16 17 16 16
13 8 7 12 13 15 14 14 14 14 12 13 13 13 12 11 11 11 13 12 12 12 13 13 12 13 11 11 11 11 10 11 16 15 6 5 9 15 15 15 15 14 15
12 9 10 15 14 14 13 13 12 12 12 13 13 12 12 12 10 12 11 12 13 12 12 13 13 12 11 11 10 9 6 9 15 11 7 6 5 11 14 15 13 15 14
12 10 14 16 15 14 14 13 13 13 13 13 12 13 12 11 11 13 12 13 12 12 12 13 12 12 12 11 10 10 13 17 14 7 7 7 4 12 14 14 13 15 13
12 10 11 15 15 15 15 15 14 14 13 13 13 13 12 11 12 11 11 11 11 12 12 12 12 12 13 10 10 13 15 17 8 6 6 6 5 11 14 14 13 13 12
14 9 10 17 16 15 16 14 14 14 13 13 12 12 11 13 12 11 12 11 10 11 11 11 10 10 11 10 11 10 15 15 9 7 6 4 9 12 14 13 12 12 12
13 10 7 8 14 16 16 15 14 14 14 13 13 12 12 12 11 11 12 10 10 10 10 9 8 9 10 10 8 6 15 15 6 5 8 3 10 12 12 12 10 12 11
12 10 6 6 6 6 8 15 14 15 14 13 12 11 12 11 12 11 8 9 9 9 10 9 9 10 9 8 7 12 14 14 5 5 4 4 11 12 11 12 10 9 11
9 10 7 7 6 6 6 9 12 15 14 12 11 12 9 4 5 8 7 9 9 9 8 8 9 8 10 9 7 9 11 4 5 3 2 10 11 11 11 10 10 10 9
13 10 9 8 7 6 7 6 5 7 4 4 5 6 4 4 3 5 7 9 8 7 6 5 6 9 7 3 2 4 4 4 3 3 2 9 10 11 10 9 9 8 8
15 11 11 10 9 7 6 4 2 2 3 3 5 4 4 3 2 3 3 2 2 6 2 3 3 2 3 2 2 4 5 5 3 2 4 8 10 10 9 8 8 7 7
15 15 13 12 9 5 4 5 5 3 3 3 4 5 4 3 3 4 3 3 2 1 1 2 1 2 3 4 4 6 8 5 3 2 4 8 9 9 9 7 7 6 5
16 14 13 11 9 6 6 4 3 4 3 3 4 6 5 4 3 4 4 3 2 1 1 2 2 2 3 4 4 9 9 6 5 3 2 10 8 9 8 8 7 7 5
15 16 12 11 8 8 6 6 5 4 5 4 4 5 6 5 4 4 4 3 3 3 3 3 3 1 3 4 5 6 7 6 5 5 3 5 9 8 9 9 8 7 6
16 16 14 11 8 11 8 5 5 5 7 6 4 6 6 4 5 5 3 3 3 1 4 4 5 1 2 1 5 5 5 5 5 5 4 3 5 11 10 10 9 8 7
17 15 13 13 12 9 7 6 5 3 6 5 4 5 6 5 6 5 4 3 4 2 3 2 4 2 2 3 1 5 4 4 5 6 4 3 3 4 8 10 10 10 9
17 15 10 10 10 9 5 5 5 5 4 5 4 4 6 5 6 5 4 2 4 4 4 4 2 3 2 1 2 3 3 3 5 5 5 6 6 4 3 8 10 10 11
17 14 12 10 8 8 5 5 3 3 2 3 4 4 6 5 6 5 3 3 3 3 3 3 2 1 2 3 2 2 1 3 3 4 5 5 4 5 5 5 4 5 11
17 14 13 10 7 6 3 3 3 3 3 3 4 6 6 6 5 6 4 3 3 4 1 4 3 2 2 2 4 3 2 2 3 4 4 4 5 6 5 5 4 3 4
18 15 12 13 10 6 5 3 3 4 2 3 4 5 5 6 5 5 5 4 3 3 4 4 4 2 0 1 3 2 2 4 2 5 4 5 7 4 6 6 6 5 5
18 16 15 13 12 8 7 3 2 3 3 2 1 3 4 7 6 6 6 5 5 3 4 4 4 4 2 1 2 4 2 3 2 1 4 4 5 5 6 6 8 7 6
18 15 15 13 12 8 8 5 5 4 4 4 4 3 4 6 7 6 6 5 5 4 5 4 3 2 3 1 2 2 2 3 2 3 3 3 3 6 6 5 6 6 7
17 15 14 15 13 11 9 7 6 4 4 3 3 6 5 5 7 6 7 7 6 4 4 5 4 4 3 3 2 1 1 2 1 2 3 3 2 4 4 5 5 5 6
18 16 15 16 15 11 10 7 8 7 6 4 6 6 4 4 4 6 6 6 6 6 5 4 3 6 4 3 2 1 3 2 2 3 2 3 3 3 3 4 4 5 5
Wind_Direction
171 172 162 143 134 125 111 110 126 126 124 119 115 113 109 109 108 104 107 108 107 103 108 97 96 96 97 94 98 100 103 98 96 94 96 100 103 97 91 91 92 95 96
144 163 163 156 140 129 117 117 131 128 128 123 119 122 119 115 115 106 106 111 113 111 108 110 103 95 97 101 105 106 111 106 101 96 99 99 102 99 100 97 99 102 97
142 159 162 155 138 132 123 122 126 130 130 124 125 123 123 124 120 118 113 107 122 113 118 115 110 106 103 106 102 107 109 106 102 102 99 94 103 104 97 103 94 95 94
140 150 145 140 138 134 129 131 136 141 134 134 132 129 127 123 118 112 114 112 111 112 116 110 113 105 102 104 109 110 114 116 112 103 80 73 94 96 103 101 100 100 100
139 140 146 143 141 138 137 136 136 131 127 126 132 131 128 122 118 113 110 112 112 111 111 115 112 108 107 108 111 116 120 114 109 92 81 76 78 109 109 100 102 94 91
139 140 145 145 143 142 140 138 138 135 133 129 130 135 127 127 129 120 119 111 116 113 109 111 115 113 115 109 102 100 108 111 97 85 89 90 77 106 106 110 103 98 99
136 142 143 144 138 138 138 138 132 135 131 134 134 132 131 123 120 118 116 113 115 116 116 119 121 123 123 114 101 115 112 112 97 89 87 82 92 110 103 99 100 103 106
134 135 142 138 141 138 133 132 136 135 134 134 131 131 127 126 121 125 122 125 118 119 124 124 122 125 121 102 88 108 117 113 107 107 97 94 112 119 108 108 113 115 111
132 130 132 139 139 140 133 139 138 134 133 135 133 133 133 128 129 131 125 121 122 120 118 116 122 116 99 95 86 89 121 119 105 108 115 111 115 111 114 115 114 107 103
133 134 132 128 117 136 142 144 142 138 137 137 137 131 134 135 129 130 124 120 118 111 111 113 107 100 97 93 85 97 129 118 108 95 97 133 127 132 126 132 120 127 117
137 139 140 137 134 137 139 148 146 144 143 147 139 137 121 99 126 125 143 127 121 111 116 125 116 105 96 92 82 110 97 86 100 110 126 143 139 133 129 124 113 109 107
151 155 156 154 150 153 156 133 148 157 141 147 143 132 107 121 150 138 140 128 119 113 109 123 104 93 80 73 50 66 95 107 107 117 149 145 140 133 135 130 120 117 113
160 160 169 162 163 168 151 144 177 156 148 148 154 163 145 141 129 115 81 58 66 102 57 68 56 74 111 148 196 123 130 126 126 151 157 144 139 141 137 134 131 131 127
163 164 168 172 168 172 144 166 176 163 171 164 174 155 121 122 133 114 124 169 127 210 115 52 127 110 81 156 152 122 131 136 138 137 164 150 148 146 142 141 141 143 141
164 162 173 175 172 154 157 162 148 178 171 166 164 143 141 146 156 159 153 157 143 233 252 262 287 8 360 11 114 141 128 142 148 153 161 161 160 154 157 160 161 165 163
165 165 170 185 164 150 167 171 176 178 165 157 173 153 146 147 155 160 165 181 170 203 229 258 255 183 24 2 90 127 133 159 158 159 176 170 168 170 170 176 179 185 187
169 161 175 174 150 159 168 168 181 175 160 171 175 174 139 132 158 161 159 180 202 190 224 235 266 350 52 337 145 136 151 161 162 174 184 193 180 185 191 194 195 199 205
158 160 166 162 157 156 156 167 139 140 156 173 158 161 141 154 144 153 156 190 155 179 199 231 176 222 215 125 188 174 165 158 176 176 166 194 206 210 202 204 206 207 217
156 155 152 155 156 140 131 120 139 143 178 163 154 162 162 158 154 145 155 150 167 131 167 155 169 152 166 197 145 127 167 174 191 170 185 195 210 205 214 224 215 219 225
159 157 148 156 155 140 131 117 125 134 124 145 166 164 150 152 155 131 147 169 124 127 138 110 144 176 169 175 135 121 194 207 207 188 193 201 211 214 214 219 231 233 233
163 157 157 151 169 141 133 141 137 153 152 187 187 165 157 159 149 137 143 158 153 132 148 149 90 150 61 187 101 0 322 219 251 253 219 204 213 216 229 217 218 222 242
166 167 163 168 162 163 150 162 147 142 201 175 182 166 167 152 162 156 156 147 145 138 154 134 129 133 27 36 121 105 10 338 277 231 219 227 222 204 219 223 222 226 226
169 170 170 171 166 168 165 131 85 73 61 60 195 197 193 171 177 162 167 157 168 162 156 164 155 142 149 326 143 143 95 228 325 298 228 223 216 213 222 212 217 225 223
176 171 168 167 168 171 168 158 156 169 159 203 189 186 188 177 177 174 159 171 169 166 164 189 140 164 119 152 341 225 201 143 173 341 317 276 215 222 220 220 216 218 219
174 172 171 168 168 173 184 183 185 183 182 185 183 187 188 188 184 177 167 166 171 180 178 182 164 145 158 148 180 301 349 37 186 140 272 297 296 233 228 218 212 215 215
176 175 170 170 174 167 184 190 189 199 199 167 187 196 194 195 188 195 181 170 172 170 175 195 164 159 172 169 142 156 162 167 219 188 225 262 233 288 242 239 235 230 219